When you browse on this site, cookies collect data to enhance your experience and personalize the content and advertising you see.
Visit our Privacy Policy to learn more. By continuing to use the site, you agree to this use of cookies and data.
  • în România
  • Lista ţărilor
  • Pe 7 zile
  • Temperatura apei
  • Meteo pe hartă
  • Widget-uri
  • user-avatar
    Intrare

    Meteo pe oră la Lumivaara

    Astăzi, 19 Septembrie, Joi

    Timp Temperatura Precipitaţii Vânt Presiune Umiditate
    00:00 +2°C° 0 mm 3 m/s 755 mmHg 77%
    01:00 +1°C° 0 mm 3 m/s 755 mmHg 79%
    02:00 +1°C° 0 mm 3 m/s 755 mmHg 81%
    03:00 +2°C° 0 mm 2 m/s 756 mmHg 82%
    04:00 +2°C° 0 mm 2 m/s 756 mmHg 83%
    05:00 +2°C° 0 mm 2 m/s 756 mmHg 84%
    06:00 +3°C° 0 mm 2 m/s 756 mmHg 79%
    07:00 +4°C° 0 mm 2 m/s 756 mmHg 74%
    08:00 +6°C° 0 mm 1 m/s 757 mmHg 70%
    09:00 +7°C° 0 mm 1 m/s 757 mmHg 64%
    10:00 +9°C° 0 mm 1 m/s 757 mmHg 58%
    11:00 +10°C° 0 mm 1 m/s 757 mmHg 53%
    12:00 +10°C° 0 mm 1 m/s 757 mmHg 51%
    13:00 +10°C° 0 mm 1 m/s 757 mmHg 50%
    14:00 +10°C° 0 mm 2 m/s 757 mmHg 49%
    15:00 +10°C° 0 mm 1 m/s 757 mmHg 54%
    16:00 +9°C° 0 mm 1 m/s 757 mmHg 59%
    17:00 +9°C° 0 mm 1 m/s 757 mmHg 64%
    18:00 +7°C° 0.1 mm 2 m/s 757 mmHg 71%
    19:00 +6°C° 0.1 mm 2 m/s 757 mmHg 78%
    20:00 +4°C° 0.1 mm 3 m/s 757 mmHg 85%
    21:00 +4°C° 0.2 mm 3 m/s 757 mmHg 88%
    22:00 +3°C° 0.2 mm 3 m/s 757 mmHg 91%
    23:00 +3°C° 0.2 mm 4 m/s 757 mmHg 94%

    Mâine, 20 Septembrie, Vineri

    Timp Temperatura Precipitaţii Vânt Presiune Umiditate
    00:00 +3°C° 0.1 mm 4 m/s 758 mmHg 93%
    01:00 +2°C° 0.1 mm 5 m/s 758 mmHg 92%
    02:00 +2°C° 0.1 mm 5 m/s 758 mmHg 91%
    03:00 +1°C° 0 mm 5 m/s 758 mmHg 92%
    04:00 0°C° 0 mm 4 m/s 758 mmHg 93%
    05:00 0°C° 0 mm 4 m/s 758 mmHg 94%
    06:00 +1°C° 0 mm 4 m/s 758 mmHg 88%
    07:00 +3°C° 0 mm 4 m/s 758 mmHg 83%
    08:00 +3°C° 0 mm 4 m/s 758 mmHg 77%
    09:00 +5°C° 0 mm 4 m/s 758 mmHg 69%
    10:00 +6°C° 0 mm 4 m/s 758 mmHg 61%
    11:00 +8°C° 0 mm 3 m/s 758 mmHg 53%
    12:00 +8°C° 0.1 mm 4 m/s 758 mmHg 52%
    13:00 +8°C° 0.1 mm 4 m/s 758 mmHg 52%
    14:00 +8°C° 0.1 mm 5 m/s 758 mmHg 51%
    15:00 +8°C° 0.1 mm 4 m/s 758 mmHg 54%
    16:00 +7°C° 0.1 mm 4 m/s 757 mmHg 57%
    17:00 +7°C° 0.1 mm 4 m/s 757 mmHg 60%
    18:00 +5°C° 0 mm 4 m/s 757 mmHg 66%
    19:00 +4°C° 0 mm 3 m/s 757 mmHg 71%
    20:00 +2°C° 0 mm 3 m/s 757 mmHg 76%
    21:00 +2°C° 0 mm 3 m/s 757 mmHg 79%
    22:00 +2°C° 0 mm 3 m/s 757 mmHg 81%
    23:00 +3°C° 0 mm 2 m/s 757 mmHg 84%

    Poimâine, 21 Septembrie, Sâmbătă

    Timp Temperatura Precipitaţii Vânt Presiune Umiditate
    00:00 +3°C° 0 mm 2 m/s 756 mmHg 85%
    01:00 +3°C° 0 mm 2 m/s 756 mmHg 87%
    02:00 +2°C° 0 mm 2 m/s 756 mmHg 89%
    03:00 +3°C° 0 mm 2 m/s 756 mmHg 90%
    04:00 +3°C° 0 mm 2 m/s 755 mmHg 91%
    05:00 +3°C° 0 mm 2 m/s 755 mmHg 92%
    06:00 +4°C° 0 mm 2 m/s 754 mmHg 88%
    07:00 +6°C° 0 mm 1 m/s 754 mmHg 84%
    08:00 +7°C° 0 mm 1 m/s 754 mmHg 81%
    09:00 +7°C° 0 mm 1 m/s 753 mmHg 78%
    10:00 +8°C° 0 mm 1 m/s 753 mmHg 76%
    11:00 +8°C° 0 mm 0 m/s 753 mmHg 73%
    12:00 +9°C° 0 mm 1 m/s 752 mmHg 74%
    13:00 +9°C° 0 mm 1 m/s 752 mmHg 75%
    14:00 +9°C° 0 mm 1 m/s 751 mmHg 75%
    15:00 +8°C° 0.1 mm 1 m/s 751 mmHg 79%
    16:00 +7°C° 0.1 mm 0 m/s 750 mmHg 83%
    17:00 +6°C° 0.1 mm 0 m/s 749 mmHg 87%
    18:00 +7°C° 0.9 mm 1 m/s 749 mmHg 90%
    19:00 +6°C° 0.9 mm 2 m/s 749 mmHg 94%
    20:00 +4°C° 0.9 mm 3 m/s 749 mmHg 97%
    21:00 +4°C° 1.3 mm 4 m/s 749 mmHg 96%
    22:00 +2°C° 1.3 mm 6 m/s 749 mmHg 94%
    23:00 +1°C° 1.3 mm 8 m/s 750 mmHg 93%

    22 Septembrie, Duminică

    Timp Temperatura Precipitaţii Vânt Presiune Umiditate
    00:00 0°C° 0.3 mm 8 m/s 751 mmHg 91%
    01:00 0°C° 0.3 mm 8 m/s 752 mmHg 90%
    02:00 0°C° 0.3 mm 8 m/s 753 mmHg 88%
    03:00 0°C° 0 mm 8 m/s 754 mmHg 87%
    04:00 -1°C° 0 mm 7 m/s 755 mmHg 87%
    05:00 -1°C° 0 mm 7 m/s 756 mmHg 86%
    06:00 0°C° 0 mm 7 m/s 757 mmHg 83%
    07:00 0°C° 0 mm 7 m/s 758 mmHg 81%
    08:00 +2°C° 0 mm 7 m/s 758 mmHg 78%
    09:00 +3°C° 0 mm 6 m/s 759 mmHg 72%
    10:00 +4°C° 0 mm 6 m/s 759 mmHg 67%
    11:00 +5°C° 0 mm 6 m/s 759 mmHg 61%
    12:00 +5°C° 0 mm 6 m/s 760 mmHg 61%
    13:00 +5°C° 0 mm 6 m/s 760 mmHg 60%
    14:00 +5°C° 0 mm 6 m/s 760 mmHg 60%
    15:00 +5°C° 0 mm 6 m/s 760 mmHg 62%
    16:00 +5°C° 0 mm 5 m/s 760 mmHg 64%
    17:00 +5°C° 0 mm 5 m/s 760 mmHg 66%
    18:00 +4°C° 0 mm 4 m/s 760 mmHg 70%
    19:00 +3°C° 0 mm 4 m/s 760 mmHg 74%
    20:00 +1°C° 0 mm 4 m/s 760 mmHg 78%
    21:00 0°C° 0 mm 4 m/s 760 mmHg 80%
    22:00 0°C° 0 mm 4 m/s 761 mmHg 81%
    23:00 +1°C° 0 mm 3 m/s 761 mmHg 83%

    23 Septembrie, Luni

    Timp Temperatura Precipitaţii Vânt Presiune Umiditate
    00:00 +1°C° 0 mm 3 m/s 761 mmHg 83%
    01:00 +1°C° 0 mm 3 m/s 761 mmHg 84%
    02:00 0°C° 0 mm 3 m/s 761 mmHg 85%
    03:00 0°C° 0 mm 3 m/s 761 mmHg 87%
    04:00 0°C° 0 mm 3 m/s 761 mmHg 90%
    05:00 0°C° 0 mm 3 m/s 760 mmHg 92%
    06:00 +1°C° 0 mm 3 m/s 760 mmHg 87%
    07:00 +2°C° 0 mm 3 m/s 760 mmHg 83%
    08:00 +3°C° 0 mm 3 m/s 760 mmHg 78%
    09:00 +4°C° 0 mm 3 m/s 760 mmHg 69%
    10:00 +7°C° 0 mm 3 m/s 760 mmHg 60%
    11:00 +8°C° 0 mm 3 m/s 760 mmHg 52%
    12:00 +8°C° 0 mm 3 m/s 759 mmHg 50%
    13:00 +8°C° 0 mm 3 m/s 759 mmHg 49%
    14:00 +8°C° 0 mm 3 m/s 759 mmHg 47%
    15:00 +8°C° 0 mm 3 m/s 759 mmHg 51%
    16:00 +7°C° 0 mm 3 m/s 758 mmHg 55%
    17:00 +5°C° 0 mm 3 m/s 758 mmHg 59%
    18:00 +5°C° 0 mm 2 m/s 758 mmHg 64%
    19:00 +3°C° 0 mm 2 m/s 758 mmHg 68%
    20:00 +2°C° 0 mm 2 m/s 758 mmHg 72%
    21:00 +2°C° 0 mm 2 m/s 758 mmHg 74%
    22:00 +1°C° 0 mm 2 m/s 758 mmHg 75%
    23:00 +1°C° 0 mm 2 m/s 758 mmHg 76%

    24 Septembrie, Marţi

    Timp Temperatura Precipitaţii Vânt Presiune Umiditate
    00:00 +1°C° 0 mm 2 m/s 758 mmHg 79%
    01:00 +1°C° 0 mm 2 m/s 758 mmHg 81%
    02:00 -1°C° 0 mm 2 m/s 758 mmHg 83%
    03:00 -1°C° 0 mm 2 m/s 758 mmHg 85%
    04:00 -1°C° 0 mm 2 m/s 758 mmHg 88%
    05:00 -1°C° 0 mm 2 m/s 758 mmHg 90%
    06:00 0°C° 0 mm 3 m/s 758 mmHg 85%
    07:00 +1°C° 0 mm 3 m/s 758 mmHg 79%
    08:00 +2°C° 0 mm 3 m/s 757 mmHg 73%
    09:00 +3°C° 0 mm 3 m/s 758 mmHg 67%
    10:00 +4°C° 0 mm 3 m/s 758 mmHg 61%
    11:00 +5°C° 0 mm 3 m/s 758 mmHg 55%
    12:00 +5°C° 0 mm 3 m/s 758 mmHg 56%
    13:00 +5°C° 0 mm 3 m/s 758 mmHg 57%
    14:00 +5°C° 0 mm 3 m/s 757 mmHg 57%
    15:00 +5°C° 0 mm 3 m/s 758 mmHg 60%
    16:00 +5°C° 0 mm 3 m/s 758 mmHg 62%
    17:00 +4°C° 0 mm 3 m/s 758 mmHg 65%
    18:00 +4°C° 0 mm 3 m/s 758 mmHg 66%
    19:00 +3°C° 0 mm 3 m/s 758 mmHg 68%
    20:00 +3°C° 0 mm 3 m/s 758 mmHg 70%
    21:00 +2°C° 0 mm 3 m/s 759 mmHg 72%
    22:00 +2°C° 0 mm 3 m/s 759 mmHg 73%
    23:00 +1°C° 0 mm 3 m/s 759 mmHg 75%
    Arată mai mult